Sexton Summit, OR

8:03 AM PST on December 06, 2019 (GMT -0800)
Sexton Summit

Weather History for KSXT - August, 2019

Change the Weather History Date:

Monday, August 26, 2019

  Actual Average Record
Temperature  
Mean Temperature 70 °F -  
Max Temperature 82 °F 72 °F 86 °F (2017)
Min Temperature 57 °F 51 °F 44 °F (2008)
Cooling Degree Days 4    
Growing Degree Days 20 (Base 50)    
Moisture  
Dew Point 47 °F    
Average Humidity 45    
Maximum Humidity 60    
Minimum Humidity 34    
Precipitation  
Precipitation 0.00 in - - ()
Sea Level Pressure  
Sea Level Pressure 29.96 in    
Wind  
Wind Speed 7 mph (North)    
Max Wind Speed 12 mph    
Max Gust Speed -    
Visibility 10 miles    
Events      
Averages and records for this station are not official NWS values.
T = Trace of Precipitation, MM = Missing Value Source: NWS Daily Summary

Daily Weather History Graph

Daily Weather History Graph

Search for Another Location

Airport or City:

Astronomy

Aug. 26, 2019 Rise Set
Actual Time 6:31 AM PDT 7:57 PM PDT
Civil Twilight 6:02 AM PDT 8:27 PM PDT
Nautical Twilight 5:26 AM PDT 9:02 PM PDT
Astronomical Twilight 4:49 AM PDT 9:40 PM PDT
Moon 1:57 AM PDT (8/26) 5:31 PM PDT (8/26)
Length of Visible Light 14h 25m
Length of Day
13h 26m
Waning Crescent, 18% of the Moon is Illuminated
Aug 26
Waning Crescent
Aug 30
New
Sep 5
First Quarter
Sep 13
Full
Sep 21
Last Quarter

Hourly Weather History & Observations

Time (PDT) Temp. Dew Point Humidity Pressure Visibility Wind Dir Wind Speed Gust Speed Precip Events Conditions
12:56 AM 61.0 °F 45.0 °F 56% 30.04 in 10.0 mi North 8.1 mph - N/A   Clear
1:56 AM 60.1 °F 45.0 °F 57% 30.02 in 10.0 mi North 11.5 mph - N/A   Clear
2:56 AM 57.9 °F 44.1 °F 60% 30.01 in 10.0 mi North 9.2 mph - N/A   Clear
3:56 AM 57.9 °F 44.1 °F 60% 30.00 in 10.0 mi NNE 6.9 mph - N/A   Clear
4:56 AM 60.1 °F 45.0 °F 57% 30.00 in 10.0 mi North 11.5 mph - N/A   Clear
5:56 AM 61.0 °F 45.0 °F 56% 30.01 in 10.0 mi NNE 5.8 mph - N/A   Clear
6:56 AM 59.0 °F 45.0 °F 60% 30.03 in 10.0 mi NNE 5.8 mph - N/A   Clear
9:56 AM 69.1 °F 50.0 °F 51% 30.03 in 10.0 mi East 3.5 mph - N/A   Clear
11:56 AM 75.0 °F 51.1 °F 43% 30.01 in 10.0 mi Variable 3.5 mph - N/A   Clear
12:56 PM 79.0 °F 52.0 °F 39% 29.98 in 10.0 mi Calm Calm - N/A   Clear
1:56 PM 77.0 °F 51.1 °F 40% 29.97 in 10.0 mi Variable 4.6 mph - N/A   Clear
2:56 PM 80.1 °F 52.0 °F 38% 29.96 in 10.0 mi Calm Calm - N/A   Clear
3:56 PM 82.0 °F 51.1 °F 34% 29.94 in 10.0 mi Variable 3.5 mph - N/A   Clear
4:56 PM 80.1 °F 51.1 °F 36% 29.92 in 10.0 mi NW 4.6 mph - N/A   Clear
5:56 PM 77.0 °F 50.0 °F 39% 29.92 in 10.0 mi NNW 9.2 mph - N/A   Clear
6:56 PM 73.0 °F 48.0 °F 41% 29.93 in 10.0 mi NNW 9.2 mph - N/A   Clear
7:56 PM 70.0 °F 46.0 °F 42% 29.91 in 10.0 mi NNW 9.2 mph - N/A   Clear
8:56 PM 72.0 °F 46.0 °F 40% 29.91 in 10.0 mi North 9.2 mph - N/A   Clear
9:56 PM 73.9 °F 44.1 °F 34% 29.90 in 10.0 mi North 8.1 mph - N/A   Clear
10:56 PM 73.9 °F 44.1 °F 34% 29.89 in 10.0 mi Calm Calm - N/A   Clear
11:56 PM 75.0 °F 45.0 °F 34% 29.87 in 10.0 mi ESE 4.6 mph - N/A   Clear